User: anonymous
Location: *
(90.0000°N, 180.0000°W)
Time: 00:31:36
(UTC+02:00)
Language:

Cosmos 1825 - Orbit

View from above orbital plane
View from above orbital plane
View from above satellite
View from above satellite

Ground track
Ground track

The orbit data is extracted from the following two-line orbital elements,

1 17566U 87024A   14208.73946250  .00000996  00000-0  55446-4 0   518
2 17566 082.5048 253.0789 0003327 268.2931 230.5549 15.12533766493883
Epoch (UTC): 27 July 2014 17:44:49
Eccentricity: 0.0003327
inclination: 82.5048°
perigee height: 526 km
apogee height: 531 km
right ascension of ascending node: 253.0789°
argument of perigee: 268.2931°
revolutions per day: 15.12533766
mean anomaly at epoch: 230.5549°
orbit number at epoch: 49388

The dashed part of the orbit path shows where the satellite is in the earth's shadow,  

DLR